Terug naar catalogus

RASSVET-3 2

ActiefWetenschapPO
NORAD 68361·PAYLOAD·🇷🇺 Russia

Gelanceerd Mar 23, 2026 vanaf Plesetsk Cosmodrome

Loading…

Volgende Passages (komende 24 uur)

TLE

VersSource: Space-Track

Epoch: Sep 14, 2026, 12:36 UTC

1 68361U 26061B   26257.52510266  .00003116  00000-0  15011-3 0  9990
2 68361  82.2886 279.5999 0004130 142.5282 217.6240 15.18394685 27216

Volg RASSVET-3 2 in realtime met AllMySat

Download on the App Store